Simultaneous Nadir Overpasses (SNOs) Predictions

Prediction of SNOs between GOES-14 and NPP Satellite Orbit:

Table of predicted SNOs for the next 14.0 days since TLE Epoch: 6/21/2019
Index Date Time (GOES-14) GOES-14 Lat,Lon NPP Lat,Lon Distance(km) Time Diff (sec)
1 06/22/2019 20:39:49 0.09,-104.68 -0.86,-108.90 481.83 80
2 06/23/2019 20:23:45 0.07,-104.68 0.14,-104.37 35.43 80
3 06/26/2019 08:24:09 -0.08,-104.54 0.04,-105.11 64.75 80
4 06/27/2019 08:08:04 -0.07,-104.55 -0.97,-100.58 452.71 80
5 06/28/2019 20:27:22 0.10,-104.72 -0.19,-105.89 134.31 80
6 06/29/2019 20:11:17 0.09,-104.72 0.82,-101.36 382.81 80
7 07/01/2019 08:30:25 -0.13,-104.56 0.36,-106.63 235.63 80
8 07/02/2019 08:14:21 -0.11,-104.57 -0.65,-102.09 281.37 80
9 07/03/2019 20:33:39 0.15,-104.73 -0.45,-107.42 306.03 80
10 07/04/2019 20:17:35 0.13,-104.73 0.56,-102.89 210.84 80




NCC Satellite Simultaneous Nadir Overpasses (SNOs) Prediction Service
